[[{"header":{"parameterUnit":"m.s-1","parameterCategory":1,"la1":30.2991,"la2":30.254,"lo1":-89.0895,"lo2":-89.0444,"dy":0.0017,"dx":0.0017,"nx":28,"ny":28,"refTime":"2024-09-01T21:00:00:Z","depth":0,"parameterNumber":2,"parameterNumberName":"U-component_of_WINDS"},"data":[0,0,0,0,0,0,0,0,0,0,0,0,0,0,0,0,0,0,0,0,0,0,0,0,0,0,0,0,0,0,0,0,0,0,0,0,0,0,0,0,0,0,0,0,0,0,0,0,0,0,0,0,0,0,0,0,0,0,0.7189,0.719,0,0.7218,0.7218,0.7219,0.7242,0.7243,0.7243,0.7243,0.7272,0.7273,0.7273,0,0,0,0,0,0,0,0,0,0,0,0,0,0.7155,0.7155,0.7189,0.719,0.719,0.7218,0.7218,0.7219,0.7242,0.7243,0.7243,0.7243,0.7272,0.7273,0.7273,0,0,0,0,0,0,0,0,0,0,0,0,0,0.7175,0.7156,0.7189,0.7205,0.7207,0.7218,0.7218,0.7219,0.7242,0.7243,0.7243,0.7243,0.7272,0.7273,0.7273,0.7271,0,0,0.7276,0.7276,0,0,0,0,0,0,0,0,0.7174,0.7177,0.7202,0.7204,0.7206,0.7227,0.7217,0.7236,0.7242,0.7229,0.7243,0.7244,0.7257,0.7259,0.7263,0.7272,0.7273,0.7276,0.7276,0.7277,0.7277,0,0,0,0,0,0,0,0.7173,0.7175,0.7201,0.7203,0.7205,0.7211,0.7214,0.7221,0.724,0.723,0.7232,0.7235,0.7258,0.7263,0.7264,0.7274,0.7276,0.7277,0.7277,0.7277,0.7281,0.7281,0,0,0,0,0,0,0.7169,0.7174,0.72,0.7201,0.7191,0.7211,0.7215,0.722,0.724,0.7244,0.7235,0.7236,0.7261,0.7263,0.7265,0.7263,0.7277,0.7277,0.7278,0.7282,0.7281,0.7281,0,0,0,0,0,0,0.7168,0.7171,0.7199,0.7188,0.7192,0.7211,0.7217,0.722,0.7225,0.7244,0.7247,0.7236,0.7261,0.7264,0.7269,0.7264,0.7278,0.7279,0.7282,0.7282,0.7281,0.7259,0,0,0,0,0,0,0.7167,0.717,0.717,0.7188,0.7193,0.7202,0.7217,0.7221,0.7226,0.7228,0.7246,0.7249,0.7262,0.7268,0.727,0.7266,0.7279,0.7283,0.7282,0.7281,0.726,0.7257,0.7255,0,0,0,0,0,0.7166,0.7162,0.7169,0.7172,0.7192,0.7201,0.7204,0.7219,0.7226,0.7225,0.7237,0.7248,0.7265,0.7268,0.7271,0.7267,0.7283,0.7282,0.7281,0.7261,0.7258,0.7255,0,0,0,0,0,0,0.7142,0.7165,0.7173,0.7175,0.7186,0.7205,0.7205,0.7215,0.7224,0.7226,0.7244,0.7248,0.7251,0.7259,0.7263,0.7265,0.7275,0.7275,0.7259,0.7256,0.7254,0.7251,0.728,0,0,0,0,0,0.7137,0.7143,0.7163,0.7163,0.7168,0.7185,0.719,0.7201,0.7213,0.7217,0.723,0.7241,0.7249,0.7253,0.7261,0.7262,0.7266,0.726,0.7258,0.7256,0.7255,0.7256,0.7253,0.7278,0.7278,0.7278,0,0,0.7127,0.714,0.7143,0.7158,0.7168,0.7173,0.7189,0.7194,0.7198,0.7218,0.7223,0.7233,0.7247,0.7249,0.7251,0.7256,0.7249,0.7255,0.7253,0.7253,0.7255,0.7252,0.725,0.7278,0.7278,0.7278,0,0,0.7111,0.7122,0.7123,0.7132,0.7147,0.7159,0.7159,0.7177,0.7184,0.719,0.7205,0.721,0.7223,0.7232,0.7238,0.7226,0.7237,0.7229,0.7216,0.7217,0.7215,0.7213,0.7208,0.7206,0.7228,0.7228,0.7228,0,0.7096,0.7105,0.7122,0.7126,0.7133,0.7151,0.7152,0.7161,0.7177,0.7181,0.7188,0.7204,0.7215,0.722,0.7217,0.7221,0.7222,0.7226,0.7214,0.7212,0.7211,0.7206,0.7204,0.7227,0.7227,0.7227,0.7227,0,0.7086,0.7092,0.7091,0.7107,0.7113,0.7116,0.7133,0.7138,0.7148,0.7159,0.7165,0.7178,0.7189,0.7192,0.7202,0.7198,0.7201,0.721,0.7221,0.7207,0.7203,0.7201,0.7225,0.7226,0.7226,0.7226,0,0,0.7054,0.708,0.7079,0.7086,0.7104,0.7109,0.7113,0.7124,0.7127,0.7139,0.7142,0.7153,0.7161,0.7169,0.718,0.7181,0.717,0.719,0.7191,0.7185,0.7165,0.7157,0.7155,0.7177,0.7177,0.7177,0.7164,0,0.704,0.7048,0.7064,0.7066,0.7072,0.709,0.7093,0.7105,0.7116,0.7122,0.7134,0.7141,0.7153,0.7157,0.7158,0.7171,0.7166,0.7172,0.718,0.718,0.7175,0.7153,0.7145,0.7132,0.7163,0.7162,0.7162,0,0.7025,0.7035,0.7038,0.7056,0.7058,0.7061,0.7072,0.7079,0.7092,0.71,0.7108,0.7121,0.7126,0.7136,0.7143,0.7147,0.7151,0.7158,0.7158,0.7158,0.7169,0.7152,0.7128,0.7125,0.716,0.716,0.716,0,0.7,0.7015,0.7018,0.7024,0.7045,0.7046,0.7055,0.7069,0.7075,0.7085,0.7089,0.71,0.7105,0.7113,0.7129,0.7135,0.7133,0.7145,0.714,0.7139,0.7137,0.7137,0.7112,0.7142,0.7142,0.7142,0.7142,0,0.6982,0.6983,0.7008,0.701,0.7011,0.703,0.7031,0.7041,0.7054,0.7058,0.7075,0.7079,0.71,0.7106,0.7118,0.7122,0.7124,0.713,0.7133,0.7128,0.7127,0.713,0.7131,0.7142,0.7142,0.7142,0.7142,0,0.6954,0.6971,0.6976,0.6996,0.7001,0.7001,0.7018,0.7021,0.7033,0.7038,0.7041,0.706,0.7068,0.7085,0.7098,0.7106,0.7106,0.7112,0.7101,0.7103,0.7096,0.7096,0.7071,0.7069,0.7101,0.7101,0.71,0,0.6941,0.6942,0.6962,0.6967,0.6975,0.6981,0.6987,0.7006,0.7012,0.7027,0.7028,0.7038,0.7046,0.7058,0.7073,0.7083,0.7089,0.708,0.7091,0.7085,0.7088,0.7087,0.7087,0.7077,0.7077,0.7076,0.7076,0,0.6915,0.6924,0.6932,0.6943,0.6949,0.6959,0.6969,0.6972,0.6993,0.6998,0.7007,0.7014,0.7027,0.7036,0.7049,0.7058,0.707,0.7073,0.7072,0.7066,0.7059,0.7061,0.7093,0.7073,0.7073,0.7073,0.7074,0.7074,0.6893,0.6895,0.691,0.6918,0.6928,0.6938,0.6941,0.6954,0.6962,0.6974,0.6985,0.6992,0.7006,0.7024,0.7032,0.7039,0.7045,0.7043,0.7043,0.7042,0.7039,0.7059,0.7041,0.7041,0.7041,0.7041,0.7041,0,0.6868,0.6878,0.6886,0.69,0.6907,0.6919,0.6931,0.6936,0.6942,0.6954,0.6962,0.6972,0.6982,0.6998,0.7008,0.701,0.7016,0.7012,0.7011,0.7013,0.7034,0.7033,0.7007,0.7007,0.7007,0.7007,0.7007,0.7007,0.6855,0.6858,0.6868,0.6877,0.6888,0.6895,0.6901,0.691,0.692,0.693,0.6938,0.6948,0.6962,0.6974,0.6983,0.6987,0.699,0.6984,0.699,0.7008,0.7012,0.7015,0.7014,0.6984,0.6984,0.6968,0.6968,0.6968]},{"header":{"parameterUnit":"m.s-1","parameterCategory":1,"la1":30.2991,"la2":30.254,"lo1":-89.0895,"lo2":-89.0444,"dy":0.0017,"dx":0.0017,"nx":28,"ny":28,"refTime":"2024-09-01T21:00:00:Z","depth":0,"parameterNumber":3,"parameterNumberName":"V-component_of_WINDS"},"data":[0,0,0,0,0,0,0,0,0,0,0,0,0,0,0,0,0,0,0,0,0,0,0,0,0,0,0,0,0,0,0,0,0,0,0,0,0,0,0,0,0,0,0,0,0,0,0,0,0,0,0,0,0,0,0,0,0,0,-1.1559,-1.1559,0,-1.1608,-1.1608,-1.1609,-1.1611,-1.161,-1.161,-1.1609,-1.1661,-1.1663,-1.1665,0,0,0,0,0,0,0,0,0,0,0,0,0,-1.1469,-1.147,-1.1559,-1.1559,-1.156,-1.1608,-1.1608,-1.1609,-1.1611,-1.161,-1.1609,-1.1609,-1.166,-1.1662,-1.1665,0,0,0,0,0,0,0,0,0,0,0,0,0,-1.1512,-1.1471,-1.1558,-1.1567,-1.1568,-1.1607,-1.1608,-1.1609,-1.1611,-1.161,-1.1609,-1.1608,-1.1659,-1.1662,-1.1665,-1.17,0,0,-1.1674,-1.1675,0,0,0,0,0,0,0,0,-1.1509,-1.1515,-1.1565,-1.1566,-1.1567,-1.1602,-1.1595,-1.164,-1.1611,-1.1595,-1.1609,-1.1608,-1.1642,-1.1646,-1.1658,-1.1703,-1.1705,-1.1674,-1.1676,-1.1677,-1.1678,0,0,0,0,0,0,0,-1.1506,-1.1513,-1.1578,-1.1565,-1.1567,-1.1568,-1.1573,-1.1604,-1.1623,-1.1596,-1.1596,-1.1602,-1.1643,-1.1655,-1.1659,-1.1706,-1.1674,-1.1677,-1.1678,-1.168,-1.1784,-1.1785,0,0,0,0,0,0,-1.1501,-1.151,-1.1576,-1.158,-1.1536,-1.1571,-1.1576,-1.1592,-1.1622,-1.1626,-1.1603,-1.1602,-1.165,-1.1655,-1.1661,-1.1705,-1.1677,-1.168,-1.1681,-1.1783,-1.1784,-1.1785,0,0,0,0,0,0,-1.1499,-1.1507,-1.1575,-1.1545,-1.1554,-1.1573,-1.1591,-1.1593,-1.1605,-1.1627,-1.1631,-1.1611,-1.165,-1.1657,-1.1691,-1.1706,-1.1681,-1.1684,-1.1781,-1.1783,-1.1784,-1.1792,0,0,0,0,0,0,-1.1497,-1.1507,-1.152,-1.1545,-1.1555,-1.1603,-1.1592,-1.1595,-1.161,-1.161,-1.1637,-1.164,-1.165,-1.1686,-1.1693,-1.171,-1.1686,-1.178,-1.1782,-1.1784,-1.1791,-1.1794,-1.1797,0,0,0,0,0,-1.1494,-1.152,-1.152,-1.1528,-1.1572,-1.1604,-1.161,-1.162,-1.1611,-1.1625,-1.1639,-1.1639,-1.1703,-1.169,-1.1698,-1.1715,-1.1779,-1.1782,-1.1784,-1.1789,-1.1793,-1.1797,0,0,0,0,0,0,-1.1496,-1.1524,-1.1524,-1.156,-1.1579,-1.1604,-1.1622,-1.1623,-1.1646,-1.1645,-1.1657,-1.1663,-1.1697,-1.1709,-1.1694,-1.1752,-1.174,-1.1744,-1.1742,-1.1746,-1.1749,-1.1745,-1.1688,0,0,0,0,0,-1.1501,-1.1524,-1.1547,-1.1576,-1.1586,-1.1602,-1.1617,-1.1622,-1.1644,-1.1652,-1.1669,-1.169,-1.1715,-1.1731,-1.1755,-1.1793,-1.1799,-1.1809,-1.1812,-1.1814,-1.1817,-1.1839,-1.1844,-1.1793,-1.1793,-1.1793,0,0,-1.1511,-1.1529,-1.1543,-1.1577,-1.1593,-1.1617,-1.1609,-1.1635,-1.1654,-1.1656,-1.1689,-1.1703,-1.1727,-1.1763,-1.178,-1.1775,-1.1833,-1.1817,-1.1819,-1.1821,-1.1842,-1.1847,-1.1851,-1.1794,-1.1794,-1.1794,0,0,-1.1542,-1.1557,-1.1583,-1.16,-1.1624,-1.1635,-1.1641,-1.1666,-1.1674,-1.1708,-1.171,-1.1733,-1.1775,-1.1793,-1.1807,-1.1845,-1.1846,-1.1853,-1.1868,-1.1889,-1.1893,-1.1897,-1.1911,-1.1915,-1.1856,-1.1856,-1.1856,0,-1.1551,-1.1587,-1.1597,-1.1623,-1.1638,-1.1641,-1.1668,-1.1684,-1.1715,-1.1726,-1.172,-1.1774,-1.179,-1.1831,-1.184,-1.1851,-1.1859,-1.185,-1.1891,-1.1895,-1.1899,-1.1912,-1.1917,-1.1857,-1.1857,-1.1856,-1.1856,0,-1.1598,-1.1623,-1.1641,-1.1671,-1.1688,-1.1715,-1.1729,-1.1746,-1.175,-1.1762,-1.1796,-1.1816,-1.1845,-1.1855,-1.186,-1.1896,-1.1893,-1.1889,-1.1878,-1.1904,-1.1917,-1.1922,-1.1858,-1.1857,-1.1857,-1.1857,0,0,-1.1631,-1.1666,-1.1672,-1.1686,-1.1713,-1.1733,-1.176,-1.1788,-1.1802,-1.1824,-1.1847,-1.1883,-1.188,-1.1897,-1.1904,-1.1922,-1.1951,-1.1916,-1.1917,-1.1922,-1.1994,-1.1996,-1.2002,-1.1952,-1.1953,-1.1954,-1.1992,0,-1.1665,-1.1712,-1.1722,-1.1763,-1.1787,-1.1791,-1.1814,-1.1834,-1.1846,-1.1868,-1.1881,-1.1907,-1.1901,-1.1911,-1.1929,-1.1944,-1.1966,-1.1941,-1.1975,-1.1976,-1.1968,-1.2009,-1.2012,-1.2046,-1.1997,-1.1998,-1.1998,0,-1.171,-1.1733,-1.1776,-1.1801,-1.1811,-1.1832,-1.1859,-1.188,-1.1903,-1.191,-1.1928,-1.1934,-1.1963,-1.195,-1.1991,-1.1974,-1.1988,-1.1998,-1.1999,-1.2003,-1.1989,-1.2014,-1.2058,-1.2063,-1.2006,-1.2006,-1.2005,0,-1.1731,-1.1772,-1.1803,-1.1815,-1.1844,-1.1859,-1.1872,-1.1894,-1.191,-1.1934,-1.1944,-1.1971,-1.1985,-1.2006,-1.2019,-1.2008,-1.2058,-1.2047,-1.2066,-1.2066,-1.2076,-1.2076,-1.2123,-1.2085,-1.2085,-1.2085,-1.2085,0,-1.1768,-1.1794,-1.1813,-1.1832,-1.1862,-1.1874,-1.1904,-1.1917,-1.1936,-1.1959,-1.1964,-1.1985,-1.2,-1.2024,-1.2034,-1.2066,-1.2073,-1.208,-1.2082,-1.208,-1.2079,-1.2089,-1.2087,-1.2086,-1.2086,-1.2086,-1.2086,0,-1.1795,-1.1809,-1.1843,-1.1869,-1.1876,-1.1897,-1.1919,-1.1938,-1.195,-1.1979,-1.1986,-1.2005,-1.2033,-1.2047,-1.2083,-1.2089,-1.2126,-1.2127,-1.2118,-1.2119,-1.2138,-1.2136,-1.2194,-1.2203,-1.2158,-1.2159,-1.2159,0,-1.1818,-1.1838,-1.1866,-1.1881,-1.1894,-1.1919,-1.1935,-1.1947,-1.1965,-1.1992,-1.2009,-1.2037,-1.206,-1.2105,-1.2122,-1.215,-1.2151,-1.217,-1.2155,-1.2152,-1.2152,-1.2151,-1.2153,-1.2172,-1.2173,-1.2173,-1.2174,0,-1.1857,-1.1863,-1.1886,-1.1912,-1.1931,-1.1952,-1.1973,-1.1985,-1.2001,-1.202,-1.2049,-1.2067,-1.2103,-1.2131,-1.2159,-1.2174,-1.2177,-1.2178,-1.2184,-1.2181,-1.2176,-1.218,-1.2125,-1.2177,-1.2176,-1.2176,-1.2176,-1.2176,-1.1883,-1.1902,-1.1924,-1.195,-1.1967,-1.1986,-1.2006,-1.202,-1.2044,-1.2074,-1.208,-1.211,-1.2133,-1.2172,-1.2187,-1.2212,-1.2208,-1.2216,-1.2219,-1.2221,-1.2222,-1.2172,-1.2217,-1.2217,-1.2217,-1.2217,-1.2217,0,-1.1923,-1.1937,-1.1961,-1.199,-1.201,-1.2011,-1.2034,-1.2051,-1.2078,-1.2099,-1.2122,-1.2155,-1.2183,-1.2202,-1.2231,-1.2247,-1.2249,-1.2254,-1.2253,-1.2256,-1.2223,-1.2215,-1.2252,-1.2252,-1.2252,-1.2252,-1.2252,-1.2252,-1.1946,-1.1977,-1.1986,-1.2026,-1.2041,-1.207,-1.2084,-1.2102,-1.2119,-1.2156,-1.2178,-1.2191,-1.2212,-1.2242,-1.2267,-1.2273,-1.2283,-1.2288,-1.2293,-1.2262,-1.2258,-1.2255,-1.2248,-1.229,-1.229,-1.2324,-1.2325,-1.2325]}]]